sat.trackr.live / text

‹ back to catalog

KUIPER-00279

NORAD 67795 · 2026-030AH

PAYLOAD ACTIVE UNKNOWN

§ Identity

Operator
Country
US
Launch date
2026-02-12
Launch site
FRGUI
Launch vehicle
Mass (kg)
RCS (m²)

External: N2YO · Heavens-Above · Gunter

§ Orbital elements

Epoch: 2026-05-24T21:33:30.159072Z

Period
93.78 min
Inclination
51.8799°
Eccentricity
0.0007776
Mean motion
15.35557573 rev/d
Perigee alt
453.9 km
Apogee alt
464.6 km
Semi-major
6,837.4 km
B*
-8.8893e-5
RAAN
211.6186°
Arg perigee
325.4902°
Mean anomaly
34.5578°
Rev number
1,680

§ Raw data

KUIPER-002791 67795U 26030AH  26144.89826573 -.00003508  00000+0 -88893-4 0  99972 67795  51.8799 211.6186 0007776 325.4902  34.5578 15.35557573 16805

JSON: /api/v1/satellites/67795 · /tle

For live sub-satellite position, see the globe view (requires WebGL).

§ Visibility from observer

Set your observer location to see the next 7 days of passes ≥ 10°. The values pass through the URL so the page stays shareable.

No JS? Fill the form by hand. The geolocation button needs JavaScript.